Location: *
(2.5500°S, 65.9667°W)
Time: 05:52:16
(UTC+00:00)

Explorer 7 - Pass Details

Date: 26 April 2024
Orbit: 467 x 625 km, 50.3° (Epoch: 26 May)

Event Time Altitude Azimuth Distance (km) Brightness Sun altitude
Rises 22:43:27 0° 300° (WNW) 2,736 12.2 -5.9°
Reaches altitude 10° 22:46:06 10° 285° (WNW) 1,811 11.3 -6.6°
Maximum altitude 22:49:21 22° 233° (SW) 1,177 9.0 -7.4°
Drops below altitude 10° 22:52:29 10° 180° (S) 1,738 9.2 -8.1°
Sets 22:54:59 0° 165° (SSE) 2,596 10.0 -8.7°
